Regional Weather Roundup
Issued by NWS

Home | Current Version | Previous Version | Graphics & Text | Print | Product List | Glossary On
Versions: 1 2 3 4 5 6 7 8 9 10 11 12 13 14 15 16 17 18 19 20 21 22 23 24 25 26 27 28 29 30 31 32 33 34 35 36 37 38 39 40 41 42 43 44 45 46 47 48 49 50
000
ASUS43 KBIS 221720
RWRND

NORTH DAKOTA REGIONAL WEATHER ROUNDUP
NATIONAL WEATHER SERVICE BISMARCK ND
1200 PM CDT TUE JUL 22 2014

NOTE: "FAIR" INDICATES FEW OR NO CLOUDS BELOW 12,000 FEET WITH NO
SIGNIFICANT WEATHER AND/OR OBSTRUCTIONS TO VISIBILITY.


NDZ001>003-009>011-017-221800-
NORTHWEST NORTH DAKOTA

CITY           SKY/WX    TMP DP  RH WIND       PRES   REMARKS
WILLISTON      MOSUNNY   79  61  53 VRB7      30.18R
MINOT          CLOUDY    73  61  65 VRB3      30.19R
MINOT AFB      SUNNY     72  63  72 NE3       30.18S
$$

NDZ018>021-031>035-040>046-221800-
SOUTHWEST NORTH DAKOTA

CITY           SKY/WX    TMP DP  RH WIND       PRES   REMARKS
BISMARCK       SUNNY     72  62  71 VRB5      30.20S
DICKINSON      MOSUNNY   72  64  76 E6        30.21R
GARRISON         N/A     73  65  75 SE7       30.20R
HETTINGER ARPT SUNNY     76  61  59 CALM      30.23R
$$

NDZ004>008-012>016-024-026-027-054-221800-
NORTHEAST NORTH DAKOTA

CITY           SKY/WX    TMP DP  RH WIND       PRES   REMARKS
GRAND FORKS    SUNNY     73  57  57 N12       30.13R
GRND FRKS AFB  SUNNY     73  58  58 N10       30.15R
DEVILS LAKE    SUNNY     72  55  56 N5        30.17S
$$

NDZ022-023-025-028>030-036>039-047>053-221800-
SOUTHEAST NORTH DAKOTA

CITY           SKY/WX    TMP DP  RH WIND       PRES   REMARKS
FARGO          SUNNY     76  58  53 N17       30.12R
JAMESTOWN      SUNNY     74  60  61 NE8       30.17R
$$



USA.gov is the U.S. government's official web portal to all federal, state and local government web resources and services.